Location: Middelsbur
(53.6609°N, 7.5020°E)
Time: 23:45:09
(UTC+00:00)

USA 215 - Pass Details

Date: 06 July 2020
Orbit: 1102 x 1106 km, 123.0° (Epoch: 08 August)

Event Time Altitude Azimuth Distance (km) Brightness Sun altitude
Rises 23:40:37 0° 70° (ENE) 3,926 6.4 -13.8°
Reaches altitude 10° 23:43:06 10° 69° (ENE) 2,967 5.8 -13.8°
Maximum altitude 23:49:39 76° 346° (NNW) 1,138 3.5 -13.7°
Drops below altitude 10° 23:56:10 10° 262° (W) 2,961 5.4 -13.6°
Sets 23:58:39 0° 261° (W) 3,918 6.0 -13.6°
